TimeMST,TemperatureF,Dew PointF,Humidity,Sea Level PressureIn,VisibilityMPH,Wind Direction,Wind SpeedMPH,Gust SpeedMPH,PrecipitationIn,Events,Conditions,WindDirDegrees,DateUTC
12:15 AM,73.4,53.6,50,30.20,10.0,Calm,Calm,-,N/A,,Mostly Cloudy,0,2013-09-07 07:15:00
12:35 AM,75.2,51.8,44,30.20,10.0,Calm,Calm,-,N/A,,Mostly Cloudy,0,2013-09-07 07:35:00
12:55 AM,71.6,53.6,53,30.20,10.0,Calm,Calm,-,N/A,,Clear,0,2013-09-07 07:55:00
1:15 AM,71.6,53.6,53,30.20,10.0,Calm,Calm,-,N/A,,Clear,0,2013-09-07 08:15:00
1:35 AM,69.8,51.8,53,30.20,10.0,Calm,Calm,-,N/A,,Clear,0,2013-09-07 08:35:00
1:55 AM,69.8,51.8,53,30.19,10.0,Calm,Calm,-,N/A,,Clear,0,2013-09-07 08:55:00
2:15 AM,69.8,51.8,53,30.19,10.0,Calm,Calm,-,N/A,,Clear,0,2013-09-07 09:15:00
2:55 AM,69.8,51.8,53,30.19,10.0,East,3.5,-,N/A,,Clear,100,2013-09-07 09:55:00
3:15 AM,68.0,51.8,56,30.19,10.0,Calm,Calm,-,N/A,,Clear,0,2013-09-07 10:15:00
3:35 AM,69.8,53.6,56,30.19,10.0,SSE,4.6,-,N/A,,Clear,160,2013-09-07 10:35:00
3:55 AM,68.0,53.6,60,30.19,10.0,Calm,Calm,-,N/A,,Clear,0,2013-09-07 10:55:00
4:15 AM,68.0,53.6,60,30.20,10.0,Calm,Calm,-,N/A,,Clear,0,2013-09-07 11:15:00
4:35 AM,68.0,53.6,60,30.20,10.0,Calm,Calm,-,N/A,,Clear,0,2013-09-07 11:35:00
4:55 AM,68.0,55.4,64,30.20,10.0,Calm,Calm,-,N/A,,Clear,0,2013-09-07 11:55:00
5:15 AM,68.0,55.4,64,30.21,10.0,SE,4.6,-,N/A,,Clear,130,2013-09-07 12:15:00
5:35 AM,66.2,55.4,68,30.21,10.0,Calm,Calm,-,N/A,,Clear,0,2013-09-07 12:35:00
5:55 AM,66.2,55.4,68,30.21,10.0,Calm,Calm,-,N/A,,Clear,0,2013-09-07 12:55:00
6:15 AM,66.2,55.4,68,30.21,10.0,East,4.6,-,N/A,,Partly Cloudy,90,2013-09-07 13:15:00
6:35 AM,64.4,55.4,73,30.22,10.0,Calm,Calm,-,N/A,,Scattered Clouds,0,2013-09-07 13:35:00
6:55 AM,66.2,55.4,68,30.21,10.0,Calm,Calm,-,N/A,,Clear,0,2013-09-07 13:55:00
7:15 AM,64.4,55.4,73,30.22,10.0,Calm,Calm,-,N/A,,Clear,0,2013-09-07 14:15:00
7:35 AM,64.4,55.4,73,30.22,10.0,Calm,Calm,-,N/A,,Partly Cloudy,0,2013-09-07 14:35:00
7:55 AM,66.2,55.4,68,30.21,10.0,Calm,Calm,-,N/A,,Scattered Clouds,0,2013-09-07 14:55:00
8:15 AM,66.2,55.4,68,30.21,10.0,Calm,Calm,-,N/A,,Clear,0,2013-09-07 15:15:00
8:35 AM,69.8,55.4,60,30.22,10.0,Calm,Calm,-,N/A,,Partly Cloudy,0,2013-09-07 15:35:00
8:55 AM,71.6,55.4,57,30.23,10.0,Calm,Calm,-,N/A,,Clear,0,2013-09-07 15:55:00
9:15 AM,75.2,55.4,50,30.23,10.0,Calm,Calm,-,N/A,,Clear,0,2013-09-07 16:15:00
9:35 AM,75.2,55.4,50,30.23,10.0,West,6.9,-,N/A,,Partly Cloudy,260,2013-09-07 16:35:00
9:55 AM,75.2,55.4,50,30.23,10.0,WSW,4.6,-,N/A,,Scattered Clouds,250,2013-09-07 16:55:00
10:15 AM,75.2,55.4,50,30.24,10.0,SW,3.5,-,N/A,,Scattered Clouds,230,2013-09-07 17:15:00
10:35 AM,77.0,55.4,47,30.23,10.0,West,6.9,-,N/A,,Scattered Clouds,280,2013-09-07 17:35:00
10:55 AM,75.2,55.4,50,30.23,10.0,Variable,4.6,11.5,N/A,,Clear,0,2013-09-07 17:55:00
11:15 AM,75.2,55.4,50,30.22,10.0,Variable,3.5,-,N/A,,Partly Cloudy,0,2013-09-07 18:15:00
11:35 AM,75.2,55.4,50,30.21,10.0,Calm,Calm,-,N/A,,Partly Cloudy,0,2013-09-07 18:35:00
11:55 AM,77.0,57.2,50,30.20,10.0,Calm,Calm,-,N/A,,Clear,0,2013-09-07 18:55:00
12:15 PM,77.0,55.4,47,30.19,10.0,Variable,4.6,-,N/A,,Partly Cloudy,0,2013-09-07 19:15:00
12:35 PM,78.8,55.4,44,30.19,10.0,Calm,Calm,-,N/A,,Partly Cloudy,0,2013-09-07 19:35:00
12:55 PM,78.8,55.4,44,30.18,10.0,NE,8.1,-,N/A,,Mostly Cloudy,50,2013-09-07 19:55:00
1:15 PM,80.6,55.4,42,30.18,10.0,Variable,4.6,-,N/A,,Mostly Cloudy,0,2013-09-07 20:15:00
1:35 PM,82.4,53.6,37,30.17,10.0,Variable,6.9,-,N/A,,Mostly Cloudy,0,2013-09-07 20:35:00
1:55 PM,80.6,55.4,42,30.16,10.0,WSW,8.1,16.1,N/A,,Mostly Cloudy,250,2013-09-07 20:55:00
2:15 PM,80.6,55.4,42,30.16,10.0,SSW,9.2,16.1,N/A,Thunderstorm,Thunderstorm,200,2013-09-07 21:15:00
2:35 PM,78.8,55.4,44,30.16,10.0,SSW,6.9,-,N/A,,Mostly Cloudy,210,2013-09-07 21:35:00
2:55 PM,78.8,53.6,42,30.15,10.0,Calm,Calm,-,N/A,Thunderstorm,Scattered Clouds,0,2013-09-07 21:55:00
3:15 PM,78.8,53.6,42,30.14,10.0,SSW,6.9,-,N/A,,Partly Cloudy,200,2013-09-07 22:15:00
3:35 PM,80.6,55.4,42,30.14,10.0,SW,8.1,16.1,N/A,,Scattered Clouds,220,2013-09-07 22:35:00
3:55 PM,80.6,53.6,39,30.14,10.0,South,8.1,-,N/A,,Mostly Cloudy,190,2013-09-07 22:55:00
4:15 PM,78.8,51.8,39,30.13,10.0,SSW,10.4,18.4,N/A,,Mostly Cloudy,200,2013-09-07 23:15:00
4:35 PM,78.8,53.6,42,30.13,10.0,SSW,8.1,15.0,N/A,,Scattered Clouds,200,2013-09-07 23:35:00
4:55 PM,78.8,53.6,42,30.13,10.0,SSW,8.1,15.0,N/A,,Scattered Clouds,200,2013-09-07 23:55:00
5:15 PM,78.8,53.6,42,30.13,10.0,South,4.6,-,N/A,,Scattered Clouds,190,2013-09-08 00:15:00
5:35 PM,78.8,55.4,44,30.13,10.0,Variable,6.9,-,N/A,,Partly Cloudy,0,2013-09-08 00:35:00
5:55 PM,77.0,55.4,47,30.13,10.0,SW,4.6,-,N/A,,Partly Cloudy,220,2013-09-08 00:55:00
6:15 PM,77.0,55.4,47,30.13,10.0,SSW,4.6,-,N/A,,Mostly Cloudy,210,2013-09-08 01:15:00
6:35 PM,77.0,55.4,47,30.14,10.0,Variable,4.6,-,N/A,,Overcast,0,2013-09-08 01:35:00
6:55 PM,77.0,55.4,47,30.14,10.0,Calm,Calm,-,N/A,,Overcast,0,2013-09-08 01:55:00
7:15 PM,75.2,55.4,50,30.14,10.0,Calm,Calm,-,N/A,,Overcast,0,2013-09-08 02:15:00
7:35 PM,75.2,55.4,50,30.15,10.0,Calm,Calm,-,N/A,,Overcast,0,2013-09-08 02:35:00
7:55 PM,73.4,55.4,53,30.15,10.0,Calm,Calm,-,N/A,,Overcast,0,2013-09-08 02:55:00
8:15 PM,75.2,55.4,50,30.16,10.0,Calm,Calm,-,N/A,,Mostly Cloudy,0,2013-09-08 03:15:00
8:35 PM,73.4,55.4,53,30.16,10.0,Calm,Calm,-,N/A,,Mostly Cloudy,0,2013-09-08 03:35:00
8:55 PM,73.4,55.4,53,30.16,10.0,Calm,Calm,-,N/A,,Overcast,0,2013-09-08 03:55:00
9:15 PM,73.4,55.4,53,30.17,10.0,Calm,Calm,-,N/A,,Overcast,0,2013-09-08 04:15:00
9:35 PM,73.4,55.4,53,30.17,10.0,Calm,Calm,-,N/A,,Overcast,0,2013-09-08 04:35:00
9:55 PM,73.4,55.4,53,30.17,10.0,Calm,Calm,-,N/A,,Overcast,0,2013-09-08 04:55:00
10:15 PM,73.4,55.4,53,30.18,10.0,Calm,Calm,-,N/A,,Overcast,0,2013-09-08 05:15:00
10:35 PM,73.4,55.4,53,30.17,10.0,Calm,Calm,-,N/A,,Overcast,0,2013-09-08 05:35:00
10:55 PM,71.6,55.4,57,30.18,10.0,Variable,5.8,12.7,N/A,,Overcast,0,2013-09-08 05:55:00
11:15 PM,71.6,55.4,57,30.17,10.0,Variable,4.6,-,N/A,,Overcast,0,2013-09-08 06:15:00
11:35 PM,69.8,57.2,64,30.17,10.0,East,10.4,19.6,N/A,,Mostly Cloudy,100,2013-09-08 06:35:00
11:55 PM,68.0,57.2,68,30.18,10.0,Variable,6.9,15.0,N/A,,Scattered Clouds,0,2013-09-08 06:55:00